Regional Weather Roundup
Issued by NWS

Home | Current Version | Previous Version | Text Only | Print | Product List | Glossary Off
Versions: 1 2 3 4 5 6 7 8 9 10 11 12 13 14 15 16 17 18 19 20 21 22 23 24 25 26 27 28 29 30 31 32 33 34 35 36 37 38 39 40 41 42 43 44 45 46 47 48 49 50

000
ASUS43 KLMK 280410
RWRKY
KENTUCKY REGIONAL WEATHER ROUNDUP
NATIONAL WEATHER SERVICE LOUISVILLE KY
1200 AM EDT WED JUN 28 2017

NOTE "FAIR" INDICATES FEW OR NO CLOUDS BELOW 12,000 FEET
WITH NO SIGNIFICANT WEATHER AND/OR OBSTRUCTIONS TO VISIBILITY.

KYZ001>023-026-027-061>063-070>075-280500-
WESTERN AND SOUTH CENTRAL KENTUCKY

CITY           SKY/WX    TMP DP  RH WIND       PRES   REMARKS
PADUCAH        PTCLDY    66  58  75 SE3       30.07S
HENDERSON      CLEAR     59  57  93 CALM      30.10R
OWENSBORO      PTCLDY    67  55  65 CALM      30.10S
HOPKINSVILLE   CLEAR     66  56  70 CALM      30.10R
BOWLING GREEN  CLEAR     65  56  72 CALM      30.11R
GLASGOW        CLEAR     60  57  87 CALM      30.13R
$$

KYZ024-025-028>034-038-045-046-053-280500-
NORTH CENTRAL KENTUCKY

CITY           SKY/WX    TMP DP  RH WIND       PRES   REMARKS
LOUISVILLE/SDF PTCLDY    68  50  52 E5        30.11S
LOUISVILLE/LOU CLEAR     65  53  65 CALM      30.12R
FORT KNOX      CLEAR     57  53  86 CALM      30.10S
$$

KYZ035>037-039>044-047>052-055>060-089>105-280500-
NORTHEAST KENTUCKY

CITY           SKY/WX    TMP DP  RH WIND       PRES   REMARKS
LEXINGTON      CLEAR     60  49  66 E3        30.14R
COVINGTON      CLEAR     62  50  64 CALM      30.13R
FRANKFORT      CLEAR     58  51  78 CALM      30.12R
$$

KYZ054-064>069-076>088-106>120-280500-
SOUTHEAST KENTUCKY

CITY           SKY/WX    TMP DP  RH WIND       PRES   REMARKS
JACKSON        CLEAR     62  47  57 CALM      30.15S
LONDON         CLEAR     59  53  80 CALM      30.15R
SOMERSET       CLEAR     55  52  88 CALM      30.16R
MIDDLESBORO    CLEAR     57  53  88 CALM      30.17R
MONTICELLO     CLEAR     55  54  96 MISG      30.17
$$





USA.gov is the U.S. government's official web portal to all federal, state and local government web resources and services.